Silver Cloud — C6MQ5 — position and weather

sailwx.info

Track history (hours):
 
Tides and Currents Weather Stations Pressure Air Temp Water Temp Dewpoint Dewpoint Depression Visibility Wind Speed Wind Dir Waves Ship Positions

Silver Cloud

Operator: V Ships Leisure SAM

Last reported at 2014-Oct-22 17:32 UTC. Time now 2014-Oct-23 09:33 UTC.
Position N 40°53' E 028°39'.

Length 155 m; draft 5.7 m.

Type: Passenger vessel. MMSI: 309027000.

Date/timePositionNaut miles runAvg speedWind from/ knotsBaromVisibWave heightAir tempDewpointWater temp
2014-Oct-22 17:32N 40°53' E 028°39'9 8.8
2014-Oct-22 16:33N 40°55' E 028°50'9 7.9
2014-Oct-22 15:21N 41°01' E 028°59'0 0.0
2014-Oct-22 06:10N 41°01' E 028°59'0 0.0
2014-Oct-22 04:28N 41°01' E 028°59'0 0.0
2014-Oct-22 02:10N 41°01' E 028°59'26 8.9
2014-Oct-21 23:13N 41°27' E 029°02'  
2014-Oct-19 13:33N 40°56' E 028°59'1312.7
2014-Oct-19 12:33N 40°50' E 028°44'195 5.3
2014-Oct-17 23:32N 38°32' E 025°45'6716.0
2014-Oct-17 19:21N 37°54' E 024°35'3016.5
2014-Oct-17 17:33N 37°36' E 024°05'1616.7
2014-Oct-17 16:33N 37°39' E 023°44'1616.3
2014-Oct-17 15:33N 37°54' E 023°37'3 2.5
2014-Oct-17 14:32N 37°56' E 023°38'0 0.0
2014-Oct-17 13:31N 37°56' E 023°38'0 0.0
2014-Oct-17 12:31N 37°56' E 023°38'0 0.0
2014-Oct-17 11:31N 37°56' E 023°38'0 0.0
2014-Oct-17 10:31N 37°56' E 023°38'0 0.0
2014-Oct-17 09:31N 37°56' E 023°38'0 0.0
2014-Oct-17 08:31N 37°56' E 023°38'0 0.0
2014-Oct-17 07:31N 37°56' E 023°38'0 0.0
2014-Oct-17 06:31N 37°56' E 023°38'0 0.0
2014-Oct-17 05:31N 37°56' E 023°38'1 1.1
2014-Oct-17 04:33N 37°56' E 023°36'5 4.9
2014-Oct-17 03:33N 37°51' E 023°39'1413.9
2014-Oct-17 02:34N 37°39' E 023°47'1614.5
2014-Oct-17 01:27N 37°36' E 024°07'1513.8
2014-Oct-17 00:23N 37°47' E 024°20'1214.3
2014-Oct-16 23:31N 37°54' E 024°33'11611.4
2014-Oct-16 13:21N 39°21' E 022°56'0 0.0
2014-Oct-16 10:03N 39°21' E 022°56'57 1.6
2014-Oct-14 21:32N 39°51' E 023°59'1414.4
2014-Oct-14 20:33N 39°57' E 024°16'1413.3
2014-Oct-14 19:28N 40°07' E 024°30'1414.1
2014-Oct-14 18:30N 40°20' E 024°29'1414.4
2014-Oct-14 17:33N 40°34' E 024°25'1414.5
2014-Oct-14 16:34N 40°48' E 024°24'8 7.6
2014-Oct-14 15:32N 40°56' E 024°25'0 0.0
2014-Oct-14 14:32N 40°56' E 024°25'0 0.0
2014-Oct-14 13:32N 40°56' E 024°25'0 0.0
2014-Oct-14 12:32N 40°56' E 024°25'0 0.0
2014-Oct-14 11:32N 40°56' E 024°25'0 0.0
2014-Oct-14 10:32N 40°56' E 024°25'0 0.0
2014-Oct-14 09:33N 40°56' E 024°25'6 6.2
2014-Oct-14 08:33N 40°50' E 024°25'1313.1
2014-Oct-14 07:33N 40°37' E 024°25'1312.9
2014-Oct-14 06:33N 40°28' E 024°38'1313.4
2014-Oct-14 05:33N 40°22' E 024°53'1413.6
2014-Oct-14 04:33N 40°16' E 025°09'1713.9
2014-Oct-14 03:20N 40°09' E 025°29'  
Track history (hours):
 
Tides and Currents Weather Stations Pressure Air Temp Water Temp Dewpoint Dewpoint Depression Visibility Wind Speed Wind Dir Waves Ship Positions

Silver Cloud

Operator: V Ships Leisure SAM

Last reported at 2014-Oct-22 17:32 UTC. Time now 2014-Oct-23 09:33 UTC.
Position N 40°53' E 028°39'.

Length 155 m; draft 5.7 m.

Type: Passenger vessel. MMSI: 309027000.

Date/timePositionNaut miles runAvg speedWind from/ knotsBaromVisibWave heightAir tempDewpointWater temp
2014-Oct-22 17:32N 40°53' E 028°39'9 8.8
2014-Oct-22 16:33N 40°55' E 028°50'9 7.9
2014-Oct-22 15:21N 41°01' E 028°59'0 0.0
2014-Oct-22 06:10N 41°01' E 028°59'0 0.0
2014-Oct-22 04:28N 41°01' E 028°59'0 0.0
2014-Oct-22 02:10N 41°01' E 028°59'26 8.9
2014-Oct-21 23:13N 41°27' E 029°02'  
2014-Oct-19 13:33N 40°56' E 028°59'1312.7
2014-Oct-19 12:33N 40°50' E 028°44'195 5.3
2014-Oct-17 23:32N 38°32' E 025°45'6716.0
2014-Oct-17 19:21N 37°54' E 024°35'3016.5
2014-Oct-17 17:33N 37°36' E 024°05'1616.7
2014-Oct-17 16:33N 37°39' E 023°44'1616.3
2014-Oct-17 15:33N 37°54' E 023°37'3 2.5
2014-Oct-17 14:32N 37°56' E 023°38'0 0.0
2014-Oct-17 13:31N 37°56' E 023°38'0 0.0
2014-Oct-17 12:31N 37°56' E 023°38'0 0.0
2014-Oct-17 11:31N 37°56' E 023°38'0 0.0
2014-Oct-17 10:31N 37°56' E 023°38'0 0.0
2014-Oct-17 09:31N 37°56' E 023°38'0 0.0
2014-Oct-17 08:31N 37°56' E 023°38'0 0.0
2014-Oct-17 07:31N 37°56' E 023°38'0 0.0
2014-Oct-17 06:31N 37°56' E 023°38'0 0.0
2014-Oct-17 05:31N 37°56' E 023°38'1 1.1
2014-Oct-17 04:33N 37°56' E 023°36'5 4.9
2014-Oct-17 03:33N 37°51' E 023°39'1413.9
2014-Oct-17 02:34N 37°39' E 023°47'1614.5
2014-Oct-17 01:27N 37°36' E 024°07'1513.8
2014-Oct-17 00:23N 37°47' E 024°20'1214.3
2014-Oct-16 23:31N 37°54' E 024°33'11611.4
2014-Oct-16 13:21N 39°21' E 022°56'0 0.0
2014-Oct-16 10:03N 39°21' E 022°56'57 1.6
2014-Oct-14 21:32N 39°51' E 023°59'1414.4
2014-Oct-14 20:33N 39°57' E 024°16'1413.3
2014-Oct-14 19:28N 40°07' E 024°30'1414.1
2014-Oct-14 18:30N 40°20' E 024°29'1414.4
2014-Oct-14 17:33N 40°34' E 024°25'1414.5
2014-Oct-14 16:34N 40°48' E 024°24'8 7.6
2014-Oct-14 15:32N 40°56' E 024°25'0 0.0
2014-Oct-14 14:32N 40°56' E 024°25'0 0.0
2014-Oct-14 13:32N 40°56' E 024°25'0 0.0
2014-Oct-14 12:32N 40°56' E 024°25'0 0.0
2014-Oct-14 11:32N 40°56' E 024°25'0 0.0
2014-Oct-14 10:32N 40°56' E 024°25'0 0.0
2014-Oct-14 09:33N 40°56' E 024°25'6 6.2
2014-Oct-14 08:33N 40°50' E 024°25'1313.1
2014-Oct-14 07:33N 40°37' E 024°25'1312.9
2014-Oct-14 06:33N 40°28' E 024°38'1313.4
2014-Oct-14 05:33N 40°22' E 024°53'1413.6
2014-Oct-14 04:33N 40°16' E 025°09'1713.9
2014-Oct-14 03:20N 40°09' E 025°29'  

Dump ship's entire track history